Погода в Сукпаке

Россия / Республика Тыва     51°38′43″N   94°15′51″E
темп.,
°C
ветер,
м/с
пор.,
м/с
влажн.,
%
обл.,
%
осадки,
мм/ч
давл.,
гПа
погр.,
м
18 апреля, вс
вс1801:00+1ссз58552 0.0 1018296
04:00−1ссз35632 0.0 1020157
07:000ссз22565 0.0 1020152
10:00+3в113447 0.0 1018720
13:00+7ююз0228100 0.0 10151257
16:00+9в132769 0.0 10122050
19:00+8с554050 0.0 1013888
22:00+5ссз335334 0.0 101474
19 апреля, пн
пн1901:00+4ссз115885 0.0 101311
04:00+3вюв016091 0.0 101210
07:00+4вюв11520 0.0 101147
10:00+8ююв233635 0.0 1008596
13:00+14ююз2820100 0.0 10021628
16:00+15сз61023100 0.0 10012589
19:00+6ссз10146467 0.1 1005734
22:00+3ссз6952100 0.0 1009693
20 апреля, вт
вт2001:00+1ссз585595 0.0 1010556
04:00−1ссз6968100 0.1 1011590
07:00−2ссз5769100 1.1 1013642
10:000ссз5749100 0.1 10141205
13:00+2ссз5639100 0.1 10141372
16:00+2ссз6635100 0.0 10131480
19:00+1ссз5741100 0.1 10141284
22:00−1с5741100 0.0 1017839
21 апреля, ср
ср2101:00−2ссз5744100 0.2 1018708
04:00−3ссз4741100 0.2 1020711
07:00−4ссз46410 0.3 1021645
10:00−1с33240 0.0 10211449
13:00+1с22180 0.0 10191925
16:00+3ссв12170 0.0 10172043
19:00+3ссв12190 0.0 10171637
22:00−1ссз34330 0.0 101977
22 апреля, чт
чт2201:00−2с334337 0.0 102055
04:00−3ссз344897 0.0 102089
07:00−1ссз3442100 0.0 1021279
10:00+2ссз4432100 0.0 10211014
13:00+4ссз3325100 0.0 10201739
16:00+6с3325100 0.0 10202142
19:00+4с5538100 0.0 10231594
22:000ссз6952100 0.0 1027529